Saint James, MN

7:28 AM CST on February 19, 2017 (GMT -0600)
Saint James Municipal

Weather History for KJYG - March, 2013

Change the Weather History Date:

Saturday, March 16, 2013

  Actual Average Record
Temperature  
Mean Temperature 24 °F -  
Max Temperature 33 °F 40 °F 77 °F (2012)
Min Temperature 15 °F 21 °F 7 °F (1984)
Degree Days  
Heating Degree Days 41    
Moisture  
Dew Point 17 °F    
Average Humidity 73    
Maximum Humidity 87    
Minimum Humidity 59    
Precipitation  
Precipitation 0.00 in - - ()
Sea Level Pressure  
Sea Level Pressure 30.11 in    
Wind  
Wind Speed 15 mph (NW)    
Max Wind Speed 21 mph    
Max Gust Speed 25 mph    
Visibility 9 miles    
Events Snow    
Averages and records for this station are not official NWS values.
T = Trace of Precipitation, MM = Missing Value Source: NWS Daily Summary

Daily Weather History Graph

Daily Weather History Graph

Search for Another Location

Airport or City:

Trip Planner

Search our weather history database for the weather conditions in past years. The results will help you decide how hot, cold, wet, or windy it might be!

Date:

Astronomy

Mar. 16, 2013 Rise Set
Actual Time 7:28 AM CDT 7:26 PM CDT
Civil Twilight 6:59 AM CDT 7:54 PM CDT
Nautical Twilight 6:25 AM CDT 8:28 PM CDT
Astronomical Twilight 5:51 AM CDT 9:02 PM CDT
Moon 9:48 AM CDT (3/16) No Moon Set
Length of Visible Light 12h 55m
Length of Day
11h 57m
Waxing Crescent, 23% of the Moon is Illuminated
Mar 16
Waxing Crescent
Mar 19
First Quarter
Mar 27
Full
Apr 2
Last Quarter
Apr 10
New

Hourly Weather History & Observations

Time (CDT) Temp. Windchill Dew Point Humidity Pressure Visibility Wind Dir Wind Speed Gust Speed Precip Events Conditions
12:15 AM 33.8 °F 24.3 °F 30.2 °F 87% 29.88 in 3.0 mi North 13.8 mph - N/A   Overcast
12:35 AM 33.8 °F 24.8 °F 28.4 °F 81% 29.88 in 3.0 mi North 12.7 mph - N/A   Overcast
12:55 AM 33.8 °F 24.8 °F 28.4 °F 81% 29.88 in 3.0 mi North 12.7 mph - N/A   Overcast
1:15 AM 33.8 °F 24.8 °F 28.4 °F 81% 29.89 in 4.0 mi North 12.7 mph - N/A   Overcast
1:35 AM 33.8 °F 25.3 °F 28.4 °F 81% 29.89 in 5.0 mi North 11.5 mph - N/A   Haze
1:55 AM 32.0 °F 24.2 °F 28.4 °F 87% 29.90 in 10.0 mi North 9.2 mph - N/A   Overcast
2:15 AM 32.0 °F 23.0 °F 28.4 °F 87% 29.90 in 10.0 mi North 11.5 mph - N/A   Overcast
2:35 AM 32.0 °F 22.5 °F 26.6 °F 80% 29.91 in 7.0 mi NNW 12.7 mph - N/A   Overcast
2:55 AM 30.2 °F 18.9 °F 26.6 °F 86% 29.92 in 10.0 mi NNW 16.1 mph - N/A   Overcast
3:15 AM 30.2 °F 19.3 °F 26.6 °F 86% 29.94 in 10.0 mi NNW 15.0 mph - N/A   Overcast
3:35 AM 30.2 °F 19.3 °F 24.8 °F 80% 29.95 in 10.0 mi NNW 15.0 mph 19.6 mph N/A   Overcast
3:55 AM 28.4 °F 17.0 °F 24.8 °F 86% 29.96 in 10.0 mi NNW 15.0 mph - N/A   Overcast
4:15 AM 28.4 °F 17.0 °F 24.8 °F 86% 29.97 in 10.0 mi NNW 15.0 mph - N/A   Overcast
4:35 AM 28.4 °F 16.6 °F 24.8 °F 86% 29.97 in 10.0 mi NNW 16.1 mph - N/A   Overcast
5:15 AM 28.4 °F 15.4 °F 24.8 °F 86% 30.00 in 10.0 mi NNW 19.6 mph - N/A   Overcast
5:35 AM 28.4 °F 15.4 °F 23.0 °F 80% 30.01 in 10.0 mi NNW 19.6 mph - N/A   Overcast
5:54 AM 28.4 °F 17.0 °F 21.2 °F 74% 30.02 in 10.0 mi NNW 15.0 mph - N/A   Overcast
6:15 AM 28.4 °F 16.6 °F 21.2 °F 74% 30.04 in 10.0 mi NNW 16.1 mph - N/A   Overcast
6:35 AM 28.4 °F 18.0 °F 21.2 °F 74% 30.05 in 10.0 mi NNW 12.7 mph - N/A   Overcast
6:55 AM 28.4 °F 16.6 °F 21.2 °F 74% 30.06 in 10.0 mi NNW 16.1 mph - N/A   Overcast
7:15 AM 26.6 °F 13.8 °F 19.4 °F 74% 30.08 in 10.0 mi NW 17.3 mph - N/A   Overcast
7:35 AM 26.6 °F 15.2 °F 19.4 °F 74% 30.09 in 10.0 mi NNW 13.8 mph 19.6 mph N/A   Overcast
7:55 AM 26.6 °F 15.2 °F 17.6 °F 69% 30.11 in 10.0 mi NNW 13.8 mph - N/A   Overcast
8:13 AM 26.6 °F 15.2 °F 17.6 °F 69% 30.11 in 10.0 mi NNW 13.8 mph - N/A   Overcast
8:35 AM 26.6 °F 16.2 °F 17.6 °F 69% 30.11 in 10.0 mi NNW 11.5 mph - N/A Snow Light Snow
8:55 AM 24.8 °F 12.4 °F 17.6 °F 74% 30.12 in 5.0 mi NW 15.0 mph - N/A Snow Light Snow
9:15 AM 24.8 °F 14.0 °F 17.6 °F 74% 30.13 in 7.0 mi NNW 11.5 mph - N/A Snow Light Snow
9:35 AM 24.8 °F 12.4 °F 17.6 °F 74% 30.13 in 7.0 mi NNW 15.0 mph - N/A Snow Light Snow
9:55 AM 24.8 °F 11.5 °F 17.6 °F 74% 30.13 in 5.0 mi WNW 17.3 mph - N/A Snow Light Snow
10:15 AM 23.0 °F 9.2 °F 17.6 °F 80% 30.14 in 7.0 mi WNW 17.3 mph 25.3 mph N/A Snow Light Snow
10:35 AM 21.2 °F 6.8 °F 15.8 °F 80% 30.15 in 10.0 mi NW 17.3 mph - N/A Snow Light Snow
10:55 AM 21.2 °F 7.3 °F 15.8 °F 80% 30.15 in 10.0 mi WNW 16.1 mph - N/A   Overcast
11:15 AM 21.2 °F 7.3 °F 15.8 °F 80% 30.15 in 10.0 mi WNW 16.1 mph 21.9 mph N/A   Overcast
11:35 AM 21.2 °F 8.3 °F 15.8 °F 80% 30.16 in 10.0 mi WNW 13.8 mph 19.6 mph N/A Snow Light Snow
11:55 AM 23.0 °F 9.2 °F 15.8 °F 74% 30.16 in 10.0 mi NW 17.3 mph 23.0 mph N/A Snow Light Snow
12:15 PM 23.0 °F 8.7 °F 15.8 °F 74% 30.16 in 10.0 mi NW 18.4 mph - N/A Snow Light Snow
12:34 PM 23.0 °F 9.2 °F 17.6 °F 80% 30.17 in 10.0 mi NW 17.3 mph - N/A Snow Light Snow
12:55 PM 23.0 °F 8.0 °F 15.8 °F 74% 30.17 in 10.0 mi NW 20.7 mph - N/A   Clear
1:15 PM 23.0 °F 9.2 °F 17.6 °F 80% 30.17 in 10.0 mi NW 17.3 mph 21.9 mph N/A   Scattered Clouds
1:35 PM 23.0 °F 9.6 °F 17.6 °F 80% 30.17 in 10.0 mi NNW 16.1 mph - N/A   Scattered Clouds
1:54 PM 23.0 °F 9.2 °F 15.8 °F 74% 30.17 in 10.0 mi NW 17.3 mph - N/A   Scattered Clouds
2:15 PM 24.8 °F 11.5 °F 15.8 °F 69% 30.16 in 10.0 mi NNW 17.3 mph - N/A   Scattered Clouds
2:35 PM 24.8 °F 12.4 °F 15.8 °F 69% 30.16 in 10.0 mi NNW 15.0 mph 20.7 mph N/A   Scattered Clouds
2:55 PM 24.8 °F 12.4 °F 15.8 °F 69% 30.15 in 10.0 mi NNW 15.0 mph 19.6 mph N/A   Scattered Clouds
3:15 PM 24.8 °F 11.9 °F 15.8 °F 69% 30.14 in 10.0 mi NNW 16.1 mph - N/A   Scattered Clouds
3:34 PM 26.6 °F 13.8 °F 15.8 °F 64% 30.14 in 10.0 mi NNW 17.3 mph 20.7 mph N/A   Scattered Clouds
3:55 PM 24.8 °F 11.1 °F 14.0 °F 64% 30.14 in 10.0 mi NNW 18.4 mph - N/A   Scattered Clouds
4:14 PM 24.8 °F 12.4 °F 12.2 °F 59% 30.14 in 10.0 mi NNW 15.0 mph - N/A   Clear
4:35 PM 24.8 °F 12.9 °F 12.2 °F 59% 30.14 in 10.0 mi NNW 13.8 mph - N/A   Clear
4:55 PM 24.8 °F 14.0 °F 12.2 °F 59% 30.14 in 10.0 mi NNW 11.5 mph - N/A   Clear
5:15 PM 24.8 °F 14.0 °F 12.2 °F 59% 30.15 in 10.0 mi NW 11.5 mph 17.3 mph N/A   Clear
5:35 PM 24.8 °F 12.9 °F 12.2 °F 59% 30.15 in 10.0 mi WNW 13.8 mph - N/A   Clear
5:52 PM 24.8 °F 13.4 °F 12.2 °F 59% 30.16 in 10.0 mi WNW 12.7 mph - N/A   Clear
6:15 PM 24.8 °F 12.9 °F 12.2 °F 59% 30.17 in 10.0 mi WNW 13.8 mph - N/A   Clear
6:35 PM 23.0 °F 9.6 °F 12.2 °F 63% 30.17 in 10.0 mi NW 16.1 mph - N/A   Clear
6:55 PM 21.2 °F 7.3 °F 12.2 °F 68% 30.18 in 10.0 mi NW 16.1 mph - N/A   Scattered Clouds
7:14 PM 21.2 °F 7.3 °F 12.2 °F 68% 30.18 in 10.0 mi NW 16.1 mph - N/A   Clear
7:35 PM 21.2 °F 6.4 °F 12.2 °F 68% 30.18 in 10.0 mi NW 18.4 mph - N/A   Scattered Clouds
7:55 PM 19.4 °F 5.0 °F 10.4 °F 68% 30.19 in 10.0 mi NW 16.1 mph - N/A   Clear
8:14 PM 19.4 °F 4.5 °F 10.4 °F 68% 30.19 in 10.0 mi NW 17.3 mph 20.7 mph N/A   Clear
8:35 PM 19.4 °F 4.1 °F 10.4 °F 68% 30.20 in 10.0 mi NW 18.4 mph - N/A   Clear
8:55 PM 19.4 °F 4.5 °F 8.6 °F 63% 30.21 in 10.0 mi NW 17.3 mph - N/A   Clear
9:14 PM 19.4 °F 3.6 °F 8.6 °F 63% 30.21 in 10.0 mi NW 19.6 mph 24.2 mph N/A   Clear
9:35 PM 17.6 °F 1.3 °F 8.6 °F 68% 30.23 in 10.0 mi NW 19.6 mph - N/A   Clear
9:55 PM 17.6 °F 3.2 °F 6.8 °F 63% 30.24 in 10.0 mi WNW 15.0 mph - N/A   Clear
10:15 PM 17.6 °F 2.2 °F 6.8 °F 63% 30.24 in 10.0 mi NW 17.3 mph - N/A   Clear
10:35 PM 17.6 °F 2.7 °F 6.8 °F 63% 30.24 in 10.0 mi NW 16.1 mph - N/A   Clear
10:54 PM 17.6 °F 5.0 °F 6.8 °F 63% 30.25 in 10.0 mi NW 11.5 mph - N/A   Clear
11:15 PM 17.6 °F 4.3 °F 8.6 °F 68% 30.25 in 10.0 mi NW 12.7 mph - N/A   Clear
11:35 PM 15.8 °F 2.7 °F 6.8 °F 68% 30.24 in 10.0 mi NW 11.5 mph - N/A   Clear
11:54 PM 15.8 °F 3.4 °F 6.8 °F 68% 30.25 in 10.0 mi NW 10.4 mph - N/A   Clear